CW6633 Weather Reports


time (UTC)temp
F
wind
direction
speed
knots
gust
knots
rain 1hr
in
rain 24hr
in
rain mn
in
humidity
%
barometer
mb
20260505064517 44 0.0 0.0 0.00 0.00 0.00 91 1012.0
20260505063517 44 0.0 0.0 0.00 0.00 0.00 90 1012.2
20260505062517 44 0.0 0.0 0.00 0.00 0.00 90 1012.3
20260505061600 44 0.0 0.9 0.00 0.00 0.00 90 1012.2
20260505060517 44 0.0 0.0 0.00 0.00 0.00 90 1013.1
20260505055538 44 0.0 0.0 0.00 0.00 0.00 90 1013.0
20260505054538 43 0.0 0.0 0.00 0.00 0.00 90 1012.7
20260505053517 43 0.0 0.0 0.00 0.00 0.00 89 1012.0
20260505052518 44 0.0 0.0 0.00 0.00 0.00 89 1012.1
20260505051517 44 0.0 0.0 0.00 0.00 0.00 88 1012.4
20260505050517 44 0.0 0.0 0.00 0.00 0.00 88 1012.4
20260505041517 46 0.0 0.0 0.00 0.00 0.00 87 1012.5
20260505040517 46 0.0 0.0 0.00 0.00 0.00 86 1012.3
20260505035517 46 0.0 0.0 0.00 0.00 0.00 85 1012.1
20260505034537 46 0.0 0.0 0.00 0.00 0.00 84 1011.9
20260505033517 47 0.0 0.9 0.00 0.00 0.00 83 1012.1
20260505032517 47 135 0.9 3.5 0.00 0.00 0.00 82 1012.2
20260505031517 48 0.0 1.7 0.00 0.00 0.00 80 1011.8
20260505030557 49 0.0 1.7 0.00 0.00 0.00 77 1011.2
20260505025517 49 113 0.9 1.7 0.00 0.00 0.00 74 1010.8
20260505024517 50 113 0.9 2.6 0.00 0.00 0.00 73 1010.9
20260505023518 50 135 0.9 5.2 0.00 0.00 0.00 71 1009.5
20260505022518 51 135 0.9 4.3 0.00 0.00 0.00 69 1009.6
20260505021518 51 135 0.9 3.5 0.00 0.00 0.00 70 1009.5
20260505020517 51 0.0 0.0 0.00 0.00 0.00 69 1008.7
20260505015538 51 0.0 0.0 0.00 0.00 0.00 69 1008.9
20260505014517 51 0.0 0.0 0.00 0.00 0.00 68 1008.8
20260505013557 52 0.0 0.0 0.00 0.00 0.00 67 1008.0
20260505012516 52 0.0 0.0 0.00 0.00 0.00 68 1008.1
20260505011517 52 0.0 0.9 0.00 0.00 0.00 67 1008.1
20260505010516 53 0.0 0.0 0.00 0.00 0.00 67 1008.3
20260505005517 53 0.0 0.9 0.00 0.00 0.00 66 1008.1
20260505004517 53 0.0 0.0 0.00 0.00 0.00 66 1008.3
20260505003517 54 0 0.9 1.7 0.00 0.00 0.00 64 1007.9
20260505002517 55 293 0.9 2.6 0.00 0.00 0.00 59 1008.6
20260505001559 58 0.0 2.6 0.00 0.00 0.00 47 1008.8
20260505000518 58 0.0 1.7 0.00 0.00 0.00 45 1007.6
20260504235518 58 0.0 2.6 0.00 0.00 0.00 44 1007.3
20260504234517 58 113 0.9 3.5 0.00 0.00 0.00 44 1007.2
20260504233516 58 158 0.9 3.5 0.00 0.00 0.00 44 1007.0
20260504232518 59 135 0.9 3.5 0.00 0.00 0.00 43 1007.2
20260504231517 59 135 1.7 7.0 0.00 0.00 0.00 43 1007.2
20260504230516 60 135 0.9 5.2 0.00 0.00 0.00 42 1007.4
20260504225517 61 158 2.6 8.7 0.00 0.00 0.00 41 1007.8
20260504224516 61 135 2.6 7.0 0.00 0.00 0.00 39 1007.6
20260504223538 60 135 1.7 6.1 0.00 0.00 0.00 40 1006.6
20260504222516 60 135 1.7 5.2 0.00 0.00 0.00 40 1006.7
20260504221516 60 135 2.6 7.0 0.00 0.00 0.00 38 1006.5
20260504220516 61 135 2.6 7.0 0.00 0.00 0.00 37 1006.5
20260504215518 62 135 3.5 8.7 0.00 0.00 0.00 35 1006.2
20260504214517 65 135 3.5 7.8 0.00 0.00 0.00 30 1006.6
20260504213516 68 0.0 2.6 0.00 0.00 0.00 27 1006.4
20260504212517 70 0.0 2.6 0.00 0.00 0.00 25 1006.8
20260504211516 71 0.0 1.7 0.00 0.00 0.00 24 1007.3
20260504210516 73 68 0.9 2.6 0.00 0.00 0.00 23 1008.4
20260504205516 73 135 0.9 2.6 0.00 0.00 0.00 25 1008.4
20260504204517 72 0.0 1.7 0.00 0.00 0.00 28 1008.8
20260504203516 68 135 0.9 3.5 0.00 0.00 0.00 30 1008.3
20260504202517 66 135 0.9 3.5 0.00 0.00 0.00 33 1008.2
20260504201516 63 135 0.9 2.6 0.00 0.00 0.00 36 1008.0
20260504200517 62 135 0.9 2.6 0.00 0.00 0.00 36 1008.3
20260504195517 62 113 0.9 3.5 0.00 0.00 0.00 36 1008.2
20260504194517 63 0.0 0.9 0.00 0.00 0.00 36 1008.3
20260504193516 63 0.0 4.3 0.00 0.00 0.00 34 1008.8
20260504192516 63 0.0 1.7 0.00 0.00 0.00 34 1009.2
20260504191516 63 315 0.9 3.5 0.00 0.00 0.00 36 1009.4
20260504190517 63 45 0.9 2.6 0.00 0.00 0.00 34 1009.9
20260504185517 65 270 2.6 7.0 0.00 0.00 0.00 27 1009.9
20260504184516 66 0.0 0.0 0.00 0.00 0.00 24 1009.2
20260504183516 67 0.0 1.7 0.00 0.00 0.00 23 1009.8
20260504182516 68 0.0 1.7 0.00 0.00 0.00 22 1009.7
20260504181516 69 135 0.9 5.2 0.00 0.00 0.00 21 1010.0
20260504180516 70 0.0 2.6 0.00 0.00 0.00 22 1010.2
20260504175516 71 0.0 1.7 0.00 0.00 0.00 23 1010.7
20260504174516 72 0 0.9 3.5 0.00 0.00 0.00 22 1010.8
20260504173518 72 0.0 1.7 0.00 0.00 0.00 19 1011.0
20260504172516 71 270 0.9 3.5 0.00 0.00 0.00 20 1011.2
20260504171516 70 0.0 2.6 0.00 0.00 0.00 22 1010.9
20260504170517 69 135 0.9 5.2 0.00 0.00 0.00 22 1011.4
20260504150516 62 0.0 2.6 0.00 0.00 0.00 27 1011.3
20260504140516 54 0.0 0.9 0.00 0.00 0.00 37 1010.3
20260504130515 51 0.0 0.0 0.00 0.00 0.00 37 1010.4
20260504110516 46 0.0 0.0 0.00 0.00 0.00 41 1009.8
20260504100518 43 0.0 0.0 0.00 0.00 0.00 48 1010.1
20260504081518 47 0.0 0.0 0.00 0.00 0.00 41 1012.0
20260504080538 49 0.0 0.0 0.00 0.00 0.00 39 1012.4